User: anonymous   Login
Location: Linz
(48.3300°N, 14.3000°E)
Time: 06:56:48
(UTC+02:00)
Language:

Vanguard 3 - Orbit

View from above orbital plane
View from above orbital plane
View from above satellite
View from above satellite

Ground track
Ground track

The orbit data is extracted from the following two-line orbital elements,

1    20U 59007A   18114.40502771 +.00000208 +00000-0 +92739-4 0  9998
2    20 033.3418 098.5088 1667675 062.7175 313.3324 11.55571102139763
Epoch (UTC): 24 April 2018 09:43:14
Eccentricity: 0.1667675
inclination: 33.3418°
perigee height: 508 km
apogee height: 3264 km
right ascension of ascending node: 98.5088°
argument of perigee: 62.7175°
revolutions per day: 11.55571102
mean anomaly at epoch: 313.3324°
orbit number at epoch: 13976

The dashed part of the orbit path shows where the satellite is in the earth's shadow,  

DLR